FW3835 Weather Reports


Display with metric or nautical units.
time (UTC)temp
F
wind
direction
speed
MPH
gust
MPH
rain 1hr
in
rain 24hr
in
rain mn
in
humidity
%
barometer
mb
20260904154527 66 117 2.0 4.0 0.00 1.79 0.01 82 1015.1
20260904153031 65 125 2.0 5.0 0.00 1.79 0.01 83 1015.0
20260904151535 63 128 1.0 3.0 0.00 1.79 0.01 83 1015.3
20260904150017 64 128 3.0 7.0 0.00 1.79 0.01 83 1015.0
20260904144528 63 126 1.0 3.0 0.00 1.79 0.01 83 1014.8
20260904143027 63 126 1.0 4.0 0.00 1.79 0.01 83 1014.6
20260904141530 62 136 1.0 4.0 0.00 1.79 0.01 83 1014.3
20260904140034 62 136 0.0 2.0 0.00 1.79 0.01 83 1014.4
20260904134503 62 136 0.0 2.0 0.00 1.79 0.01 83 1014.2
20260904133005 61 136 1.0 2.0 0.00 1.79 0.01 83 1014.2
20260904131506 61 136 1.0 3.0 0.00 1.79 0.01 83 1014.0
20260904130004 61 136 1.0 3.0 0.00 1.79 0.01 83 1013.7
20260904124504 61 136 1.0 3.0 0.00 1.79 0.01 83 1013.6
20260904123006 61 136 0.0 2.0 0.00 1.79 0.01 83 1013.8
20260904121504 61 136 0.0 3.0 0.00 1.79 0.01 83 1013.5
20260904120008 61 136 0.0 1.0 0.00 1.79 0.01 83 1013.4
20260904114505 61 136 0.0 2.0 0.00 1.79 0.01 83 1013.4
20260904113008 61 136 0.0 2.0 0.00 1.79 0.01 83 1013.3
20260904111508 61 136 1.0 3.0 0.00 1.79 0.01 83 1013.1
20260904110020 61 136 0.0 4.0 0.00 1.79 0.01 83 1013.1
20260904104506 61 140 0.0 4.0 0.00 1.79 0.01 83 1013.0
20260904103010 61 142 2.0 4.0 0.00 1.79 0.01 83 1012.8
20260904101518 60 142 1.0 3.0 0.00 1.79 0.01 83 1012.7
20260904100012 60 142 0.0 2.0 0.00 1.79 0.01 83 1012.8
20260904094507 59 142 0.0 3.0 0.00 1.79 0.01 82 1012.5
20260904093014 59 144 0.0 3.0 0.00 1.79 0.01 82 1012.2
20260904091511 59 144 0.0 2.0 0.00 1.79 0.01 82 1012.1
20260904090014 60 144 0.0 1.0 0.00 1.79 0.01 82 1012.1
20260904084514 60 144 0.0 1.0 0.00 1.79 0.01 82 1011.7
20260904083008 61 144 0.0 1.0 0.00 1.79 0.01 82 1011.7
20260904081516 61 144 0.0 4.0 0.00 1.79 0.01 82 1011.7
20260904080014 61 146 0.0 4.0 0.00 1.79 0.01 82 1011.4
20260904074519 62 139 0.0 4.0 0.00 1.79 0.01 82 1011.2
20260904073019 62 143 1.0 4.0 0.00 1.79 0.01 82 1011.2
20260904071528 62 142 2.0 7.0 0.00 1.79 0.01 82 1011.1
20260904070016 62 76 2.0 8.0 0.00 1.79 0.01 82 1011.3
20260904064515 62 94 3.0 8.0 0.00 1.79 0.01 82 1011.2
20260904063027 62 144 2.0 6.0 0.01 1.79 0.01 82 1011.3
20260904061514 62 106 1.0 7.0 0.01 1.79 0.01 82 1011.2
20260904060015 62 120 4.0 9.0 0.01 1.79 0.01 82 1011.2
20260904054516 62 131 4.0 10.0 0.01 1.79 0.01 82 1011.2
20260904053020 62 92 3.0 6.0 0.00 1.78 0.00 82 1011.1
20260904051519 62 92 3.0 9.0 0.00 1.78 0.00 82 1011.0
20260904050016 62 101 4.0 9.0 0.00 1.78 0.00 82 1010.9
20260904044530 62 131 3.0 8.0 0.00 1.78 1.78 82 1010.9
20260904043024 62 108 2.0 6.0 0.00 1.78 1.78 82 1011.0
20260904041523 62 107 0.0 7.0 0.00 1.78 1.78 82 1011.8
20260904040023 62 111 1.0 4.0 0.00 1.78 1.78 82 1011.5
20260904034524 62 112 0.0 3.0 0.01 1.78 1.78 82 1012.0
20260904033020 62 112 1.0 8.0 0.34 1.78 1.78 82 1011.7
20260904031525 62 101 1.0 8.0 0.47 1.78 1.78 81 1011.2
20260904030026 63 67 4.0 9.0 0.47 1.78 1.78 81 1010.7
20260904024523 63 109 2.0 9.0 0.46 1.77 1.77 81 1011.0
20260904023024 64 112 4.0 12.0 0.13 1.44 1.44 80 1013.6
20260904021522 64 118 4.0 14.0 0.00 1.31 1.31 80 1009.8
20260904020024 64 115 8.0 14.0 0.00 1.31 1.31 81 1009.2
20260904014525 64 95 6.0 12.0 0.00 1.31 1.31 81 1008.9
20260904013031 63 144 3.0 9.0 0.00 1.31 1.31 81 1008.4
20260904011536 63 125 3.0 10.0 0.00 1.31 1.31 81 1009.1
20260904010039 63 115 4.0 10.0 0.00 1.31 1.31 81 1009.4
20260904004526 64 103 5.0 11.0 0.00 1.31 1.31 81 1009.5
20260904003029 64 119 3.0 8.0 0.00 1.31 1.31 81 1009.4
20260904001527 64 111 1.0 8.0 0.00 1.31 1.31 82 1009.4
20260904000028 64 130 4.0 12.0 0.00 1.31 1.31 82 1009.6
20260903234533 64 76 2.0 6.0 0.00 1.31 1.31 81 1010.3
20260903233004 63 77 2.0 7.0 0.01 1.31 1.31 82 1010.4
20260903231512 63 123 3.0 9.0 0.04 1.31 1.31 82 1010.0
20260903230022 63 68 3.0 8.0 0.04 1.31 1.31 81 1009.9
20260903224527 63 306 2.0 8.0 0.07 1.31 1.31 81 1009.7
20260903223036 63 333 3.0 8.0 0.16 1.30 1.30 81 1010.0
20260903221510 63 90 1.0 6.0 0.15 1.27 1.27 81 1009.0
20260903220019 62 301 1.0 10.0 0.57 1.27 1.27 80 1008.9
20260903214518 63 85 6.0 15.0 1.24 1.24 1.24 80 1009.0
20260903213034 64 306 6.0 17.0 1.14 1.14 1.14 79 1011.9
20260903211556 64 282 4.0 16.0 1.12 1.12 1.12 77 1010.8
20260903210010 65 297 9.0 25.0 0.70 0.70 0.70 68 1010.9
20260903204512 77 125 2.0 12.0 0.00 0.00 0.00 55 1009.4
20260903203020 78 55 7.0 19.0 0.00 0.00 0.00 54 1007.9
20260903201529 79 109 4.0 16.0 0.00 0.00 0.00 53 1007.6
20260903200031 79 109 8.0 19.0 0.00 0.00 0.00 53 1008.0
20260903194509 79 158 8.0 14.0 0.00 0.00 0.00 52 1008.4
20260903193015 80 65 4.0 16.0 0.00 0.00 0.00 51 1008.4
20260903191524 83 89 5.0 14.0 0.00 0.00 0.00 48 1008.9
20260903190030 82 119 5.0 13.0 0.00 0.00 0.00 48 1009.0
20260903184532 82 136 7.0 13.0 0.00 0.00 0.00 49 1009.6
20260903183012 79 129 4.0 9.0 0.00 0.00 0.00 51 1010.1
20260903181519 81 121 3.0 12.0 0.00 0.00 0.00 49 1010.1
20260903180027 80 99 3.0 11.0 0.00 0.00 0.00 50 1009.9
20260903174546 80 159 6.0 11.0 0.00 0.00 0.00 48 1009.7
20260903173031 78 108 4.0 16.0 0.00 0.00 0.00 51 1009.9
20260903171514 78 137 5.0 15.0 0.00 0.00 0.00 49 1010.0
20260903170024 77 136 5.0 12.0 0.00 0.00 0.00 50 1009.9
20260903164529 76 11 5.0 15.0 0.00 0.00 0.00 51 1010.1
20260903163029 77 38 4.0 16.0 0.00 0.00 0.00 48 1010.2
20260903161531 77 121 3.0 14.0 0.00 0.00 0.00 52 1010.5
20260903160018 75 90 5.0 15.0 0.00 0.00 0.00 50 1010.7